Flag for Germany Weather past 2 weeks in Bitterfeld-Wolfen, Saxony-Anhalt, Germany

Now
43 °F

Clear.


Feels Like: 37 °F
Forecast: 47 / 59 °F
Wind: 10 mph from Southeast

Location: Leipzig-Schkeuditz

Current Time: Oct 25, 2014 at 2:52:37 AM

Latest Report: Oct 25, 2014 at 1:50 AM


Visibility: 10 mi

Pressure: 30.12 "Hg

Humidity: 100%

Dew point: 43 °F

Location of Bitterfeld-WolfenLocation

Historic Weather in Bitterfeld-Wolfen — Graph

°F

Bitterfeld-Wolfen temperature yesterday

Maximum temperature yesterday: 57 °F (at 1:20 PM)
Minimum temperature yesterday: 43 °F (at 11:20 PM)
Average temperature yesterday: 50 °F

Past Weeks' High & Low Weather Summary

 TemperatureHumidityPressure
High73 °F (Oct 19, 2:20 PM)100% (Oct 10, 7:20 AM)30.24 "Hg (Oct 10, 7:20 AM)
Low43 °F (Oct 22, 7:20 AM)52% (Oct 15, 3:50 PM)29.47 "Hg (Oct 21, 8:50 PM)
Average56 °F89%29.92 "Hg
* Reported Oct 10 1:20 AM — Oct 25 1:50 AM, Bitterfeld-Wolfen, Weather by CustomWeather, © 2014

Note: Actual official high and low records may vary slightly from our data, if they occured in-between our weather recording intervals... More about our weather records

Advertising

Bitterfeld-Wolfen weather history for previous 24 hours

 ConditionsComfort  
Time TempWeatherWind HumidityBarometerVisibility
1:50 AM
Oct 25
43 °FClear.10 mph100%30.12 "Hg10 mi
1:20 AM43 °FClear.9 mph100%30.12 "Hg10 mi
12:50 AM43 °FClear.10 mph100%30.12 "Hg10 mi
12:20 AM43 °FClear.9 mph100%30.12 "Hg10 mi
11:50 PM
Oct 24
43 °FClear.9 mph100%30.12 "Hg10 mi
11:20 PM43 °FClear.10 mph100%30.12 "Hg10 mi
10:50 PM45 °FClear.10 mph100%30.15 "Hg10 mi
10:20 PM45 °FClear.10 mph100%30.15 "Hg10 mi
9:50 PM45 °FClear.12 mph100%30.15 "Hg10 mi
9:20 PM45 °FClear.14 mph100%30.15 "Hg10 mi
8:50 PM45 °FClear.13 mph100%30.15 "Hg10 mi
8:20 PM45 °FClear.13 mph100%30.15 "HgN/A
7:50 PM46 °FClear.13 mph93%30.15 "Hg6 mi
7:20 PM46 °FClear.13 mph93%30.15 "Hg5 mi
6:50 PM48 °FClear.13 mph94%30.15 "Hg5 mi
6:20 PM48 °FSunny.12 mph94%30.15 "Hg10 mi
5:50 PM52 °FPartly sunny.10 mph88%30.15 "HgN/A
5:20 PM54 °FBroken clouds.9 mph82%30.15 "HgN/A
4:50 PM55 °FBroken clouds.6 mph72%30.15 "HgN/A
4:20 PM54 °FScattered clouds.8 mph77%30.15 "HgN/A
3:50 PM55 °FScattered clouds.8 mph72%30.15 "HgN/A
3:20 PM55 °FScattered clouds.9 mph72%30.18 "HgN/A
2:50 PM57 °FScattered clouds.8 mph67%30.18 "HgN/A
2:20 PM57 °FScattered clouds.8 mph67%30.18 "HgN/A
1:50 PM57 °FScattered clouds.8 mph67%30.18 "HgN/A
1:20 PM57 °FScattered clouds.9 mph72%30.21 "HgN/A
12:50 PM55 °FScattered clouds.8 mph77%30.21 "HgN/A
12:20 PM55 °FScattered clouds.9 mph77%30.21 "HgN/A
11:50 AM54 °FScattered clouds.9 mph82%30.21 "HgN/A
11:20 AM54 °FPassing clouds.10 mph88%30.24 "HgN/A
10:50 AM54 °FPassing clouds.12 mph88%30.24 "HgN/A
10:20 AM52 °FPassing clouds.9 mph94%30.24 "HgN/A
9:50 AM50 °FPartly sunny.7 mph100%30.24 "Hg5 mi
9:20 AM48 °FPartly sunny.6 mph100%30.21 "HgN/A
8:50 AM48 °FPartly sunny.6 mph94%30.21 "HgN/A
8:20 AM48 °FPassing clouds.7 mph94%30.24 "HgN/A
7:50 AM46 °FPassing clouds.7 mph100%30.21 "HgN/A
7:20 AM46 °FPassing clouds.6 mph100%30.21 "HgN/A
6:50 AM46 °FPassing clouds.5 mph100%30.21 "HgN/A
6:20 AM45 °FPassing clouds.5 mph100%30.21 "HgN/A
5:50 AM46 °FClear.5 mph100%30.21 "Hg10 mi
5:20 AM46 °FPassing clouds.5 mph93%30.21 "HgN/A
4:50 AM48 °FPassing clouds.5 mph94%30.21 "HgN/A
4:20 AM50 °FOvercast.3 mph94%30.21 "HgN/A
3:50 AM50 °FOvercast.3 mph94%30.21 "HgN/A
3:20 AM50 °FOvercast.3 mph94%30.21 "HgN/A
2:50 AM50 °FOvercast.3 mph94%30.21 "HgN/A
2:20 AM50 °FOvercast.2 mph94%30.24 "HgN/A
Weather by CustomWeather, © 2014

See weather overviewHow to use our weather pages